Location: Karaa?a�
(36.7158°N, 30.4165°E)
Time: 01:18:20
(UTC+00:00)

Cosmos 1437 - Pass Details

Date: 09 April 2020
Orbit: 373 x 377 km, 81.2° (Epoch: 24 May)

Event Time Altitude Azimuth Distance (km) Brightness Sun altitude
Rises 17:36:10 0° 342° (NNW) 2,247 7.1 -14.0°
Reaches altitude 10° 17:38:15 10° 333° (NNW) 1,390 6.1 -14.4°
Maximum altitude 17:41:02 34° 265° (W) 638 4.3 -14.9°
Drops below altitude 10° 17:43:47 10° 198° (SSW) 1,375 5.3 -15.4°
Enters shadow 17:45:36 - 190° (S) 2,121 6.2 -15.7°
